Regional Weather Roundup
Issued by NWS

Home | Current Version | Previous Version | Graphics & Text | Print | Product List | Glossary On
Versions: 1 2 3 4 5 6 7 8 9 10 11 12 13 14 15 16 17 18 19 20 21 22 23 24 25 26 27 28 29 30 31 32 33 34 35 36 37 38 39 40 41 42 43 44 45 46 47 48 49 50
000
ASUS44 KMEG 300400
RWRTN
TENNESSEE HOURLY STATE WEATHER ROUNDUP
NATIONAL WEATHER SERVICE MEMPHIS TN
1100 PM CDT SUN MAR 29 2015

TNZ002-004-019-021-049-052-054-088>092-300500-
WEST TENNESSEE

CITY           SKY/WX    TMP DP  RH WIND       PRES   REMARKS
MEMPHIS INTL   TSTM      62  54  74 CALM      30.03F
NWS MEMPHIS      N/A     60 N/A N/A MISG        N/A
JACKSON        LGT RAIN  57  45  64 CALM      30.07F
DYERSBURG      CLOUDY    55  41  58 CALM      30.09F
UNION CITY     CLOUDY    52  52 100 CALM      30.09R
PARIS          CLOUDY    52  43  71 W3        30.10R
SAVANNAH       CLOUDY    57  43  58 S10       30.05F
$$

TNZ008-025-027-028-033-062-065-066-300500-
NORTH MIDDLE TENNESSEE

CITY           SKY/WX    TMP DP  RH WIND       PRES   REMARKS
NASHVILLE      CLOUDY    55  39  54 S5        30.10F
CLARKSVILLE    CLOUDY    57  43  59 SW10      30.07R
COOKEVILLE     MOCLDY    52  36  54 SW3       30.12S
CROSSVILLE     PTCLDY    52  31  44 S10G17    30.13R
$$

TNZ061-075-076-078-094-096-097-300500-
SOUTH MIDDLE TENNESSEE

CITY           SKY/WX    TMP DP  RH WIND       PRES   REMARKS
FAYETTEVILLE   CLEAR     52  36  54 S6        30.13R
TULLAHOMA      CLEAR     52  34  50 S8        30.13R
WINCHESTER     CLEAR     54  37  54 S9        30.14S
COLUMBIA       CLOUDY    55  43  62 S6        30.07F
SHELBYVILLE    PTCLDY    54  39  58 S8        30.13R
$$

TNZ017-018-042-046-047-300500-
NORTHEAST TENNESSEE

CITY           SKY/WX    TMP DP  RH WIND       PRES   REMARKS
TRI CITIES     PTCLDY    45  23  42 CALM      30.10F
ELIZABETHTON   CLEAR     34  23  64 E3        30.11F
$$

TNZ012-013-036-069-073-074-300500-
CENTRAL EAST TENNESSEE

CITY           SKY/WX    TMP DP  RH WIND       PRES   REMARKS
KNOXVILLE      PTCLDY    54  26  34 SW17      30.10F
OAK RIDGE      CLOUDY    56  25  30 VRB7      30.15R
GATLINBURG     CLEAR     39  28  65 CALM      30.09F
$$

TNZ083-085-099-300500-
SOUTHEAST TENNESSEE

CITY           SKY/WX    TMP DP  RH WIND       PRES   REMARKS
CHATTANOOGA    PTCLDY    56  31  38 S9        30.16F
$$

SKY/WX REPORTED AS FAIR MEANS FEW OR NO CLOUDS BELOW
12 THOUSAND FEET.



USA.gov is the U.S. government's official web portal to all federal, state and local government web resources and services.